weather.gov     
National Weather Service

Regional Weather Roundup
NWS Homepage
This page is being discontinued on March 12, 2014.
The same data is available at this site. Please update your bookmarks.
Thank you, and we apologize for the inconvenience.
Please send an email to SR-SRH.Webmaster@noaa.gov with any concerns.


Current Version
Previous Version:    01  02  03  04  05  06  07  08  09  10  11  12  13  14  15  16  17  18  19  20  21  22  23  24  25  26  27  
[Printable]
806
ASPQ40 PGUM 172312
RWRPQ
WEATHER ROUNDUP FOR THE MARIANAS AND MICRONESIA
NATIONAL WEATHER SERVICE TIYAN GU
900 AM CHST THU DEC 18 2014

GUZ001>004-180000-
MARIANA ISLANDS-

CITY           SKY/WX    TMP DP  RH WIND       PRES   REMARKS
GUAM AIRPORT   MOSUNNY   84  75  74 E15       29.95R HX  92
ANDERSEN AFB   MOSUNNY   82  75  78 NE16      29.96R
ROTA AIRPORT   MOSUNNY   81  75  83 E15       29.97R
TINIAN AP      MOSUNNY   84  75  74 E15       29.95R HX  92
SAIPAN AP      MOSUNNY   82  73  74 E17       29.96R

$$

PMZ161-180000-
REPUBLIC OF PALAU-

CITY           SKY/WX    TMP DP  RH WIND       PRES   REMARKS
KOROR AP       CLOUDY    82  79  89 E8        29.88R HX  93
KOROR WSO      CLOUDY    82  77  83 SE6       29.87R HX  91

$$

PMZ171>174-180000-
FEDERATED STATES OF MICRONESIA-

CITY           SKY/WX    TMP DP  RH WIND       PRES   REMARKS
YAP AIRPORT    PTSUNNY   82  79  89 VRB7      29.87R HX  93
CHUUK AP       MOSUNNY   86  77  74 NE12      29.83S HX  97
POHNPEI AP     CLOUDY    84  77  79 E7        29.79S HX  94
POHNPEI WSO    CLOUDY    86  77  74 E7        29.85S HX  97
KOSRAE AP      PTSUNNY   86  73  66 E7        29.82F HX  93

$$

PMZ181-180000-
REPUBLIC OF THE MARSHALL ISLANDS-

CITY           SKY/WX    TMP DP  RH WIND       PRES   REMARKS
KWAJALEIN AP   SUNNY     88  75  66 E15       29.85F HX  97
MAJURO AP      CLOUDY    86  77  74 NE17      29.82S HX  97
MAJURO WSO     CLOUDY    82  77  83 E10       29.83F HX  91

$$





U.S. Dept. of Commerce
NOAA National Weather Service
1325 East West Highway
Silver Spring, MD 20910
E-mail: w-nws.webmaster@noaa.gov
Page last modified: May 16, 2007
NATIONAL WEATHER SERVICE: for Safety, for Work, for Fun - FOR LIFE